SCP
0 0 0 0 0 0 0 0 0 0 0 0 0 0 1 1 1 1 0 0 0 0 0 0 0 0 0 0 0 0 0 0 0 0 0 0 0 0
0 0 0 0 0 0 0 0 0 0 0 0 0 0 0 0 0 0 0 0 0 0 0 0 0 0 0 0 0 0 0 0 0 0 0 0 0 0
0 0 0 0 0 0 0 0 0 0 0 0 0 0 0 0 0 0 0 0 0 0 0 0 0 0 0 0 0 0 0 0 0 0 0 0 0 0
0 0 0 0 0 0 0 0 0 0 0 0 0 0 0 0 0 0 0 0 0 0 0 0 0 0 0 0 0 0 0 0 0 0 0 0 0 0
0 0 0 0 0 0 0 0 0 0 0 0 0 0 0 0 0 0 0 0 0 0 0 0 0 0 0 0 0 0 0 0 0 0 0 0 0 0
0 0 0 0 0 0 0 0 0 0 0 0 0 0 0 0 0 0 0 0 0 0 0 0 0 0 0 0 0 0 0 0 0 0 0 0 0 0
0 0 0 0 0 0 0 0 0 0 0 0 0 0 0 0 0 0 0 0 0 0 0 0 0 0 0 0 0 0 0 0 0 0 0 0 0 0
0 0 0 0 0 0 0 0 0 0 0 0 0 0 0 0 0 0 0 0 0 0 0 0 0 0 0 0 0 0 0 0 0 0 0 0 0 0
0 0 0 0 0 0 0 0 0 0 0 0 0 0 0 0 0 0 0 0 0 0 0 0 0 0 0 0 0 0 0 0 0 0 0 0 0 0
0 0 0 0 0 0 0 0 0 0 0 0 0 0 0 0 0 0 0 0 0 0 0 0 0 0 0 0 0 0 0 0 0 0 0 0 0 0
0 0 0 0 0 0 0 0 0 0 0 0 0 0 0 0 0 0 0 0 0 0 0 0 0 0 0 0 0 0 0 0 0 0 0 0 0 0
0 0 0 0 0 0 0 0 0 0 0 0 0 0 0 0 0 0 0 0 0 0 0 0 0 0 0 0 0 0 0 0 0 0 0 0 0 0
0 0 0 0 0 0 0 0 0 0 0 0 0 0 0 0 0 0 0 0 0 0 0 0 0 0 0 0 0 0 0 0 0 0 0 0 0 0
0 0 0 0 0 0 0 0 0 0 0 0 0 0 0 0 0 0 0 0 0 0 0 0 0 0 0 0 0 0 0 0 0 0 0 0 0 0
0 0 0 0 0 0 0 0 0 0 0 0 0 0 0 0 0 0 0 0 0 0 0 0 0 0 0 0 0 0 0 0 0 0 0 0 0 0
0 0 0 0 0 0 0 0 0 0 0 0 0 0 0 0 0 0 0 0 0 0 0 0 0 0 0 0 0 0 0 0 0 0 0 0 0 0
0 0 0 0 0 0 0 0 0 0 0 0 0 0 0 0 0 0 0 0 0 0 0 0 0 0 0 0 0 0 0 0 0 0 0 0 0 0
0 0 0 0 0 0 0 0 0 0 0 0 0 0 0 0 0 0 0 0 0 0 0 0 0 0 0 0 0 0 0 0 0 0 0 0 0 0
0 0 0 0 0 0 0 0 0 0 0 0 0 0 0 0 0 0 0 0 0 0 0 0 0 0 0 0 0 0 0 0 0 0 0 0 0 0
0 0 0 0 0 0 0 0 0 0 0 0 0 0 0 0 0 0 0 0 0 0 0 0 0 0 0 0 0 0 0 0 0 0 0 0 0 0
0 0 0 0 0 0 0 0 0 0 0 0 0 0 0 0 0 0 0 0 0 0 0 0 0 0 0 0 0 0 0 0 0 0 0 0 0 0
0 0 0 0 0 0 0 0 0 0 0 0 0 0 0 0 0 0 0 0 0 0 0 0 0 0 0 0 0 0 0 0 0 0 0 0 0 0
0 0 0 0 0 0 0 0 0 0 0 0 0 0 0 0 0 0 0 0 0 0 0 0 0 0 0 0 0 0 0 0 0 0 0 0 0 0
Wind_Speed
8 8 6 5 5 5 5 4 3 2 2 2 2 1 2 2 3 3 3 5 5 4 5 7 10 11 11 10 10 9 8 7 7 6 5 5 5 6
6 7 7 5 5 5 5 5 5 4 3 2 2 2 0 1 4 4 6 9 10 10 11 12 13 13 13 13 13 12 12 12 11 11 9 8 7 6
6 7 8 7 5 5 5 5 6 5 6 3 2 2 2 2 3 4 5 6 7 12 13 14 14 15 15 15 14 14 14 13 13 13 12 12 11 11
5 7 8 7 8 6 5 6 6 7 6 5 2 2 2 3 4 5 5 6 7 13 15 15 15 15 15 15 15 14 14 13 13 13 13 14 14 15
5 6 7 7 8 6 7 7 6 5 6 4 3 2 2 3 4 5 7 7 7 11 14 14 14 15 15 15 14 13 13 13 13 13 13 14 14 16
6 6 6 7 8 7 7 8 6 6 6 5 5 4 3 3 5 5 6 5 6 7 10 11 14 15 15 14 14 14 13 13 14 14 14 14 15 16
7 7 7 9 10 8 6 7 7 7 6 6 6 5 4 5 6 4 7 7 6 5 7 6 7 8 9 12 14 15 15 14 15 15 15 15 15 15
6 6 6 8 10 12 13 12 11 10 9 7 7 7 7 6 6 8 9 8 5 3 6 6 5 7 6 7 10 13 14 15 15 15 15 14 14 15
7 6 5 6 8 8 9 11 14 15 13 9 9 9 9 9 11 12 9 5 6 8 8 7 5 7 6 7 12 12 12 13 13 14 14 14 14 14
8 8 7 7 7 8 7 7 8 10 12 10 9 8 8 11 13 11 11 10 10 4 4 6 4 5 5 6 10 11 11 11 12 12 13 13 14 14
7 8 8 8 10 10 8 8 8 6 7 10 10 9 12 16 16 13 13 13 11 4 2 5 4 4 4 4 6 9 9 10 11 11 12 13 13 12
6 6 9 9 9 9 9 9 10 8 7 6 7 10 13 18 20 16 15 14 13 6 3 4 5 5 4 2 3 4 6 8 11 11 11 11 9 7
5 5 6 9 10 11 11 9 10 9 9 8 8 9 10 11 11 9 10 13 13 6 8 6 5 3 5 5 3 3 4 6 7 7 8 8 6 5
7 6 5 7 8 9 9 9 12 11 8 8 8 9 10 10 10 9 9 7 5 8 12 8 7 5 6 7 6 4 4 5 6 6 5 6 5 5
7 7 7 7 6 6 9 12 14 9 9 9 9 9 8 9 10 9 9 9 8 10 9 6 9 7 7 7 7 6 5 4 5 6 6 5 4 4
6 6 6 5 4 4 5 9 9 9 9 9 9 8 8 9 9 8 8 9 8 7 4 4 9 9 6 6 8 6 5 6 5 5 5 4 3 3
7 5 4 3 3 3 4 6 7 8 8 7 9 9 9 8 7 7 7 7 7 8 7 3 4 5 5 6 8 7 5 4 5 5 4 4 4 5
8 6 5 5 5 4 4 5 6 7 8 9 9 9 10 9 7 6 7 8 8 8 8 6 7 5 4 4 3 7 6 4 4 4 3 4 4 4
6 5 5 5 5 4 4 4 5 7 8 10 10 10 9 9 9 8 8 8 7 7 7 8 9 8 8 6 3 3 7 5 5 4 4 4 4 3
4 5 5 5 5 5 5 5 6 7 8 9 10 10 10 10 9 9 9 9 8 6 6 7 9 9 8 8 6 5 7 6 6 5 4 3 2 1
4 4 4 5 5 5 5 6 7 8 9 9 10 10 10 10 9 8 7 10 8 7 8 7 5 5 6 6 6 4 5 5 5 5 6 4 3 3
4 4 4 5 5 5 6 6 7 8 10 9 9 9 9 9 10 10 9 9 7 7 7 6 6 6 4 6 6 6 6 5 4 4 5 6 5 5
4 4 4 5 5 5 6 8 9 9 9 9 9 9 9 9 8 8 8 8 7 8 8 6 5 3 3 4 6 5 7 7 6 6 6 10 12 11
Wind_Direction
201 199 202 210 204 204 198 194 218 265 284 284 298 338 40 39 22 36 49 62 75 97 122 127 124 122 122 122 125 129 139 144 152 165 178 198 218 236
210 205 210 213 211 206 202 201 207 223 251 253 265 289 323 86 57 61 76 79 80 90 97 102 104 106 107 109 110 111 111 110 110 107 104 102 99 95
225 218 223 214 212 212 206 200 205 210 241 256 253 266 224 154 104 84 81 82 84 87 92 95 97 99 100 100 99 98 97 97 99 97 95 92 89 88
249 234 235 225 221 219 213 212 207 206 221 250 248 246 226 168 130 104 85 84 85 86 88 91 92 93 94 93 92 91 91 91 91 91 90 89 89 89
240 243 244 231 228 223 219 218 211 203 208 226 242 242 221 151 130 106 95 88 84 85 82 83 88 90 91 92 93 92 93 93 92 90 87 86 87 88
226 224 235 236 233 231 224 220 207 199 202 219 234 234 215 153 144 133 114 94 87 84 83 86 92 92 95 99 102 101 98 98 95 92 88 86 85 85
230 219 222 232 237 237 229 218 201 200 201 213 223 219 200 171 159 137 126 112 89 90 96 86 91 90 90 97 101 105 102 100 98 97 95 93 91 88
233 233 232 240 244 243 239 224 204 199 201 206 215 216 200 168 149 145 141 137 123 126 103 87 88 87 82 90 97 102 103 104 104 103 101 98 95 91
223 230 244 248 248 253 249 233 216 207 199 199 212 213 192 169 156 157 158 141 127 145 125 103 94 87 79 83 95 101 107 108 108 108 107 104 99 94
226 222 230 251 258 256 252 232 216 210 208 211 220 214 191 171 161 151 138 114 102 100 104 111 111 96 88 82 90 102 112 118 118 118 117 110 102 94
239 228 224 241 257 252 240 222 208 208 210 214 215 200 170 155 146 138 138 133 130 122 92 106 122 107 93 82 77 91 113 135 137 132 125 114 106 96
249 236 228 234 253 249 230 214 204 195 181 179 177 162 155 151 151 152 148 144 139 136 160 122 143 131 110 98 95 93 99 127 142 137 129 122 115 108
247 240 231 229 245 245 227 217 202 178 174 168 158 151 149 151 151 145 146 149 149 143 158 139 149 138 129 135 125 116 117 130 137 133 129 125 121 117
238 236 230 228 245 245 226 210 180 168 165 160 155 152 151 152 148 140 127 116 123 146 155 151 150 158 141 142 142 135 127 139 148 153 159 158 142 122
231 224 217 223 243 240 219 193 173 171 165 161 157 151 146 143 137 128 117 104 104 133 144 151 149 149 149 147 148 145 143 154 167 169 176 183 179 169
213 201 197 214 227 213 185 186 185 178 169 161 150 139 135 139 141 139 139 132 121 132 105 132 158 155 148 143 150 151 152 155 164 175 177 185 192 195
176 170 178 185 200 190 179 185 184 170 160 145 146 146 146 145 143 143 141 146 143 153 156 111 89 88 98 143 155 157 151 151 158 156 169 189 204 204
169 178 187 192 194 182 180 182 175 166 158 152 151 152 155 156 149 149 154 162 161 159 159 151 145 133 111 69 128 161 158 151 151 157 170 188 200 200
177 184 191 193 191 183 176 180 171 161 156 154 152 151 151 153 155 158 163 166 163 160 161 164 168 165 167 166 146 167 168 153 155 167 185 196 207 206
186 187 195 194 189 182 173 174 162 154 152 149 148 148 149 149 152 157 163 164 156 149 154 171 181 179 179 171 157 162 174 165 170 180 181 195 229 261
185 196 200 196 192 180 169 166 164 156 150 145 145 145 147 147 147 150 149 148 147 151 162 167 160 131 106 115 127 151 175 185 171 173 170 181 205 221
190 198 197 190 183 174 164 162 160 151 148 146 145 144 146 146 145 145 148 153 155 147 138 126 139 140 135 157 172 172 173 174 189 195 199 197 192 206
186 184 178 172 167 161 158 156 155 151 150 149 149 149 148 145 145 147 150 149 143 136 130 133 143 145 147 171 183 186 185 182 185 200 224 226 232 245